Date String (YYYY-MM-DD hh:mm:ss) UTC,Instrument flags,Ambient pressure (hPa),Sample flow (lpm),Bypass flow (lpm),Sample temperature (°C),Ambient temperature (°C),ASC tube jacket temperature (°C),LED temperature (°C),Box temperature (°C),Sample RH (%),Span deviation,Mass concentration (μg/m³),Mass concentration (μg/m³),Mass concentration (μg/m³)
DateTimeUTC,F1_M11,P_M11,Q1_M11,Q2_M11,T1_M11,T2_M11,T3_M11,T4_M11,T5_M11,U1_M11,ZSPAN_M11,X0_M11,X2_M11,X1_M11
2022-12-05 19:00:00,,0817.8,5.00,0.00,23.2,22.2,00.0,32.0,25.1,18.1,0000.0,0012.01,0006.36,0005.80
2022-12-05 19:01:00,,0817.8,5.00,0.00,23.2,22.2,00.0,32.0,25.1,18.2,0000.0,0011.95,0006.28,0005.74
2022-12-05 19:02:00,,0817.8,5.00,0.00,23.2,22.3,00.0,32.0,25.1,18.2,0000.0,0012.16,0006.20,0005.66
2022-12-05 19:03:00,,0817.8,5.01,0.00,23.3,22.3,00.0,32.0,25.2,18.3,0000.0,0012.30,0006.13,0005.59
2022-12-05 19:04:00,,0817.8,5.00,0.00,23.3,22.3,00.0,32.1,25.2,18.4,0004.1,0012.34,0006.06,0005.52
2022-12-05 19:05:00,,0817.8,5.00,0.00,23.3,22.3,00.0,32.1,25.2,18.0,0004.8,0012.37,0005.95,0005.43
2022-12-05 19:06:00,,0817.7,5.00,0.00,23.3,22.3,00.0,32.1,25.2,18.0,0004.8,0012.75,0005.87,0005.34
2022-12-05 19:07:00,,0817.6,5.00,0.00,23.3,22.3,00.0,32.1,25.2,18.1,0005.3,0012.17,0005.81,0005.26
2022-12-05 19:08:00,,0817.6,5.00,0.00,23.3,22.3,00.0,32.1,25.3,17.9,0005.6,0011.39,0005.78,0005.22
2022-12-05 19:09:00,,0817.5,5.00,0.00,23.3,22.3,00.0,32.1,25.2,18.0,0005.5,0011.89,0005.73,0005.17
2022-12-05 19:10:00,,0817.5,5.00,0.00,23.3,22.3,00.0,32.2,25.2,18.1,0004.7,0011.45,0005.66,0005.11
2022-12-05 19:11:00,,0817.5,5.00,0.00,23.3,22.2,00.0,32.2,25.2,18.0,0003.7,0011.46,0005.60,0005.07
2022-12-05 19:12:00,,0817.5,5.00,0.00,23.3,22.3,00.0,32.2,25.2,18.1,0001.0,0011.50,0005.56,0005.03
2022-12-05 19:13:00,,0817.6,5.01,0.00,23.3,22.3,00.0,32.2,25.3,18.0,0002.0,0011.27,0005.55,0005.03
2022-12-05 19:14:00,,0817.5,5.01,0.00,23.4,22.3,00.0,32.2,25.3,18.3,0000.8,0011.13,0005.55,0005.03
2022-12-05 19:15:00,,0817.6,5.00,0.00,23.4,22.3,00.0,32.2,25.3,18.2,0000.0,0011.05,0005.53,0005.02
2022-12-05 19:16:00,,0817.6,5.00,0.00,23.4,22.3,00.0,32.2,25.3,18.1,0000.0,0011.00,0005.52,0005.00
2022-12-05 19:17:00,,0817.6,5.00,0.00,23.4,22.4,00.0,32.2,25.3,18.3,0000.0,0010.79,0005.48,0004.99
2022-12-05 19:18:00,,0817.5,5.00,0.00,23.4,22.4,00.0,32.2,25.3,18.1,0000.0,0011.24,0005.42,0004.96
2022-12-05 19:19:00,,0817.6,5.00,0.00,23.4,22.4,00.0,32.3,25.4,18.0,0000.0,0011.01,0005.36,0004.90
2022-12-05 19:20:00,,0817.6,5.00,0.00,23.4,22.4,00.0,32.3,25.4,18.0,0000.0,0010.31,0005.31,0004.84
2022-12-05 19:21:00,,0817.6,4.99,0.00,23.4,22.4,00.0,32.3,25.3,18.1,0000.0,0010.80,0005.26,0004.80
2022-12-05 19:22:00,,0817.6,4.99,0.00,23.5,22.4,00.0,32.3,25.4,18.2,0000.0,0010.71,0005.22,0004.76
2022-12-05 19:23:00,,0817.5,5.00,0.00,23.5,22.4,00.0,32.3,25.4,18.0,0000.0,0010.62,0005.18,0004.71
2022-12-05 19:24:00,,0817.4,5.00,0.00,23.5,22.5,00.0,32.3,25.4,18.1,0000.0,0010.53,0005.14,0004.67
2022-12-05 19:25:00,,0817.5,5.01,0.00,23.5,22.5,00.0,32.3,25.4,18.0,0000.0,0010.99,0005.10,0004.62
2022-12-05 19:26:00,,0817.5,4.99,0.00,23.5,22.5,00.0,32.3,25.4,18.0,0000.0,0011.96,0005.07,0004.57
2022-12-05 19:27:00,,0817.5,4.99,0.00,23.5,22.5,00.0,32.3,25.5,18.2,0000.0,0012.67,0005.02,0004.51
2022-12-05 19:28:00,,0817.5,5.01,0.00,23.5,22.5,00.0,32.4,25.5,18.3,0000.0,0012.71,0004.99,0004.45
2022-12-05 19:29:00,,0817.5,5.01,0.00,23.5,22.5,00.0,32.4,25.5,18.0,0000.0,0011.89,0004.96,0004.40
2022-12-05 19:30:00,,0817.5,5.00,0.00,23.5,22.5,00.0,32.4,25.5,17.9,0000.0,0012.11,0004.94,0004.36
2022-12-05 19:31:00,,0817.5,5.00,0.00,23.5,22.5,00.0,32.4,25.5,17.9,0000.0,0012.87,0004.92,0004.33
2022-12-05 19:32:00,,0817.5,4.99,0.00,23.6,22.5,00.0,32.4,25.5,18.0,0000.0,0012.74,0004.87,0004.29
2022-12-05 19:33:00,,0817.4,4.99,0.00,23.6,22.5,00.0,32.4,25.5,18.0,0000.0,0012.79,0004.84,0004.25
2022-12-05 19:34:00,,0817.3,5.00,0.00,23.6,22.5,00.0,32.4,25.5,18.0,0000.0,0013.46,0004.82,0004.20
2022-12-05 19:35:00,,0817.4,5.01,0.00,23.6,22.4,00.0,32.4,25.5,18.0,0000.0,0013.55,0004.76,0004.14
2022-12-05 19:36:00,,0817.3,5.01,0.00,23.6,22.4,00.0,32.4,25.5,18.2,0000.0,0012.86,0004.67,0004.08
2022-12-05 19:37:00,,0817.3,4.99,0.00,23.6,22.4,00.0,32.4,25.5,18.3,0000.0,0012.22,0004.61,0004.02
2022-12-05 19:38:00,,0817.3,5.00,0.00,23.6,22.4,00.0,32.4,25.5,18.3,0000.0,0012.73,0004.54,0003.98
2022-12-05 19:39:00,,0817.4,4.99,0.00,23.6,22.4,00.0,32.4,25.5,18.2,0000.0,0012.69,0004.48,0003.94
2022-12-05 19:40:00,,0817.2,5.01,0.00,23.6,22.3,00.0,32.4,25.5,18.3,0000.0,0012.89,0004.47,0003.90
2022-12-05 19:41:00,,0817.2,5.01,0.00,23.6,22.3,00.0,32.4,25.5,18.4,0000.0,0012.59,0004.43,0003.88
2022-12-05 19:42:00,,0817.3,4.99,0.00,23.6,22.3,00.0,32.4,25.5,18.4,0000.0,0011.85,0004.39,0003.83
2022-12-05 19:43:00,,0817.3,4.99,0.00,23.6,22.3,00.0,32.4,25.5,18.3,0000.0,0011.91,0004.36,0003.80
2022-12-05 19:44:00,,0817.3,4.99,0.00,23.6,22.2,00.0,32.5,25.5,18.2,0000.0,0011.63,0004.30,0003.76
2022-12-05 19:45:00,,0817.2,5.00,0.00,23.6,22.2,00.0,32.5,25.4,18.1,0000.0,0011.06,0004.28,0003.76
2022-12-05 19:46:00,,0817.2,5.01,0.00,23.6,22.2,00.0,32.5,25.4,18.2,0000.0,0011.69,0004.28,0003.76
2022-12-05 19:47:00,,0817.1,5.01,0.00,23.5,22.2,00.0,32.5,25.4,18.4,0000.0,0011.80,0004.30,0003.76
2022-12-05 19:48:00,,0817.1,5.00,0.00,23.5,22.2,00.0,32.5,25.4,18.2,0000.0,0011.81,0004.30,0003.76
2022-12-05 19:49:00,,0817.2,5.00,0.00,23.5,22.3,00.0,32.5,25.4,18.1,0000.0,0010.39,0004.28,0003.76
2022-12-05 19:50:00,,0817.1,5.00,0.00,23.6,22.3,00.0,32.5,25.4,18.2,0000.0,0010.29,0004.24,0003.75
2022-12-05 19:51:00,,0817.2,5.00,0.00,23.5,22.3,00.0,32.5,25.4,18.1,0000.0,0010.30,0004.21,0003.77
2022-12-05 19:52:00,,0817.1,4.99,0.00,23.5,22.3,00.0,32.5,25.4,18.0,0000.0,0010.35,0004.21,0003.78
2022-12-05 19:53:00,,0817.0,5.00,0.00,23.5,22.3,00.0,32.5,25.4,18.3,0000.0,0010.02,0004.22,0003.80
2022-12-05 19:54:00,,0817.0,5.01,0.00,23.5,22.3,00.0,32.5,25.4,18.1,0000.0,0009.55,0004.25,0003.82
2022-12-05 19:55:00,,0817.0,5.01,0.00,23.5,22.3,00.0,32.5,25.4,17.9,0000.0,0009.65,0004.27,0003.84
2022-12-05 19:56:00,,0816.9,5.00,0.00,23.5,22.3,00.0,32.5,25.4,18.0,0000.0,0010.18,0004.28,0003.84
2022-12-05 19:57:00,,0817.0,5.00,0.00,23.5,22.3,00.0,32.4,25.4,18.1,0000.0,0009.51,0004.30,0003.85
2022-12-05 19:58:00,,0816.9,5.00,0.00,23.6,22.3,00.0,32.4,25.4,18.0,0000.0,0009.41,0004.31,0003.87
2022-12-05 19:59:00,,0817.2,5.00,0.00,23.6,22.3,00.0,32.4,25.5,18.0,0000.0,0009.01,0004.32,0003.90
